Location: Boca do Mato
(22.9085°S, 43.2930°W)
Time: 22:35:58
(UTC+00:00)

Cosmos 1763 Rocket - Pass Details

Date: 14 July 2020
Orbit: 732 x 781 km, 74.0° (Epoch: 10 August)

Event Time Altitude Azimuth Distance (km) Brightness Sun altitude
Rises 07:43:04 0° 338° (NNW) 3,248 6.7 -25.0°
Reaches altitude 10° 07:45:29 10° 334° (NNW) 2,326 5.9 -24.4°
Enters shadow 07:46:06 13° 332° (NNW) 2,097 5.6 -24.3°
Exits shadow 07:50:35 58° 260° (W) 904 3.5 -23.3°
Maximum altitude 07:50:42 59° 254° (WSW) 903 3.5 -23.3°
Drops below altitude 10° 07:55:56 10° 175° (S) 2,336 5.9 -22.1°
Sets 07:58:22 0° 171° (S) 3,263 6.7 -21.6°
